Location: Arcadia
(55.4009°N, 116.1279°W)
Time: 16:17:05
(UTC+00:00)

BlueWalker 3 - Visible Passes

Search period start: 08 June 2023 00:00
Search period end: 18 June 2023 00:00
Orbit: 494 x 513 km, 53.2° (Epoch: 08 June)

Date Brightness Start Highest point End Pass type
(mag) Time Alt. Az. Time Alt. Az. Time Alt. Az.
08 Jun 2.3 05:33:28 10° W 05:37:12 48° SSW 05:40:57 10° ESE visible
08 Jun 3.5 07:12:20 10° W 07:15:08 19° SW 07:16:22 17° SSW visible
09 Jun 3.6 06:51:55 10° W 06:54:41 19° SW 06:56:12 15° S visible
10 Jun 3.6 06:31:29 10° W 06:34:13 19° SW 06:36:05 14° S visible
11 Jun 3.7 06:11:02 10° W 06:13:44 18° SW 06:16:00 12° S visible
12 Jun 3.8 05:50:35 10° W 05:53:14 18° SW 05:55:54 10° S visible
13 Jun 3.8 05:30:07 10° W 05:32:44 18° SW 05:35:21 10° S visible
